Parsons, KS

10:09 AM CST on December 15, 2019 (GMT -0600)
Tri-City

Weather History for KPPF - July, 2019

Change the Weather History Date:

Saturday, July 20, 2019

  Actual Average Record
Temperature  
Mean Temperature 87 °F -  
Max Temperature 97 °F 92 °F 106 °F (1954)
Min Temperature 77 °F 69 °F 57 °F (1971)
Cooling Degree Days 22    
Growing Degree Days 37 (Base 50)    
Moisture  
Dew Point 74 °F    
Average Humidity 69    
Maximum Humidity 84    
Minimum Humidity 52    
Precipitation  
Precipitation 0.00 in - - ()
Sea Level Pressure  
Sea Level Pressure 29.85 in    
Wind  
Wind Speed 9 mph (South)    
Max Wind Speed 16 mph    
Max Gust Speed 26 mph    
Visibility 10 miles    
Events      
Averages and records for this station are not official NWS values.
T = Trace of Precipitation, MM = Missing Value Source: NWS Daily Summary

Daily Weather History Graph

Daily Weather History Graph

Search for Another Location

Airport or City:

Astronomy

Jul. 20, 2019 Rise Set
Actual Time 6:16 AM CDT 8:39 PM CDT
Civil Twilight 5:47 AM CDT 9:09 PM CDT
Nautical Twilight 5:10 AM CDT 9:46 PM CDT
Astronomical Twilight 4:29 AM CDT 10:26 PM CDT
Moon 11:11 PM CDT (7/20) 9:38 AM CDT (7/20)
Length of Visible Light 15h 22m
Length of Day
14h 22m
Waning Gibbous, 87% of the Moon is Illuminated
Jul 20
Waning Gibbous
Jul 24
Last Quarter
Jul 31
New
Aug 7
First Quarter
Aug 15
Full

Hourly Weather History & Observations

Time (CDT) Temp. Heat Index Dew Point Humidity Pressure Visibility Wind Dir Wind Speed Gust Speed Precip Events Conditions
12:52 AM 81.0 °F 85.8 °F 73.0 °F 77% 29.86 in 10.0 mi South 9.2 mph - N/A   Clear
1:52 AM 80.1 °F 83.8 °F 72.0 °F 76% 29.85 in 10.0 mi South 4.6 mph - N/A   Clear
2:52 AM 78.1 °F - 73.0 °F 84% 29.86 in 10.0 mi South 4.6 mph - N/A   Clear
3:52 AM 77.0 °F - 72.0 °F 84% 29.86 in 10.0 mi SSE 4.6 mph - N/A   Clear
4:52 AM 77.0 °F - 72.0 °F 84% 29.87 in 10.0 mi South 6.9 mph - N/A   Clear
5:52 AM 77.0 °F - 72.0 °F 84% 29.88 in 10.0 mi South 5.8 mph - N/A   Clear
6:52 AM 77.0 °F - 72.0 °F 84% 29.88 in 10.0 mi South 8.1 mph - N/A   Clear
7:52 AM 80.1 °F 84.2 °F 73.0 °F 79% 29.88 in 10.0 mi South 10.4 mph - N/A   Clear
8:52 AM 82.9 °F 89.4 °F 73.9 °F 74% 29.87 in 10.0 mi South 10.4 mph 20.7 mph N/A   Clear
9:52 AM 86.0 °F 95.1 °F 75.0 °F 70% 29.87 in 10.0 mi SSW 12.7 mph 24.2 mph N/A   Clear
10:52 AM 89.1 °F 100.2 °F 75.9 °F 65% 29.86 in 10.0 mi South 12.7 mph 24.2 mph N/A   Clear
11:52 AM 91.0 °F 102.9 °F 75.9 °F 61% 29.86 in 10.0 mi SSW 16.1 mph 26.5 mph N/A   Clear
12:52 PM 93.0 °F 106.7 °F 77.0 °F 59% 29.86 in 10.0 mi South 15.0 mph 24.2 mph N/A   Clear
1:52 PM 93.9 °F 106.9 °F 75.9 °F 56% 29.84 in 10.0 mi South 13.8 mph 21.9 mph N/A   Clear
2:52 PM 96.1 °F 111.0 °F 77.0 °F 54% 29.83 in 10.0 mi SSW 9.2 mph 23.0 mph N/A   Clear
3:52 PM 97.0 °F 112.7 °F 77.0 °F 53% 29.82 in 10.0 mi South 10.4 mph 19.6 mph N/A   Clear
4:52 PM 96.1 °F 109.4 °F 75.9 °F 52% 29.81 in 10.0 mi South 12.7 mph 25.3 mph N/A   Clear
5:52 PM 95.0 °F 109.7 °F 77.0 °F 56% 29.80 in 10.0 mi South 10.4 mph 24.2 mph N/A   Clear
6:52 PM 93.0 °F 104.6 °F 75.0 °F 56% 29.80 in 10.0 mi South 10.4 mph 18.4 mph N/A   Clear
7:52 PM 90.0 °F 100.2 °F 75.0 °F 61% 29.82 in 10.0 mi South 8.1 mph - N/A   Clear
8:52 PM 87.1 °F 96.3 °F 75.0 °F 67% 29.81 in 10.0 mi South 6.9 mph - N/A   Clear
9:52 PM 84.9 °F 92.1 °F 73.9 °F 69% 29.82 in 10.0 mi South 9.2 mph - N/A   Clear
10:52 PM 82.9 °F 88.8 °F 73.0 °F 72% 29.84 in 10.0 mi South 5.8 mph - N/A   Clear
11:52 PM 82.0 °F 87.4 °F 73.0 °F 74% 29.87 in 10.0 mi South 4.6 mph - N/A   Clear